Location: Bern�tre
(50.1974°N, 2.0915°E)
Time: 05:39:17
(UTC+00:00)

Ariane Rocket - Pass Details

Date: 18 September 2020
Orbit: 760 x 770 km, 98.7° (Epoch: 29 October)

Event Time Altitude Azimuth Distance (km) Brightness Sun altitude
Exits shadow 19:49:57 - 178° (S) 2,572 5.5 -18.1°
Reaches altitude 10° 19:50:39 10° 180° (S) 2,293 5.2 -18.2°
Maximum altitude 19:55:38 57° 259° (WSW) 902 3.6 -19.0°
Drops below altitude 10° 20:00:39 10° 338° (NNW) 2,316 6.2 -19.7°
Sets 20:03:01 0° 342° (NNW) 3,249 7.0 -20.0°
